Erzincan, Turkey

8:32 PM +03 on December 14, 2017 (GMT +0300)
Erzincan

Weather History for LTCD - March, 2013

Change the Weather History Date:

Saturday, March 2, 2013

  Actual Average Record
Temperature  
Mean Temperature 36 °F -  
Max Temperature 44 °F 50 °F - ()
Min Temperature 28 °F 32 °F - ()
Degree Days  
Heating Degree Days 29    
Moisture  
Dew Point 29 °F    
Average Humidity 81    
Maximum Humidity 100    
Minimum Humidity 38    
Precipitation  
Precipitation 0.00 in 0.05 in - ()
Sea Level Pressure  
Sea Level Pressure 30.04 in    
Wind  
Wind Speed 1 mph ()    
Max Wind Speed 5 mph    
Max Gust Speed -    
Visibility 5.3 miles    
Events Snow    
T = Trace of Precipitation, MM = Missing Value Source: Averaged Metar Reports

Daily Weather History Graph

Daily Weather History Graph

Search for Another Location

Airport or City:

Trip Planner

Search our weather history database for the weather conditions in past years. The results will help you decide how hot, cold, wet, or windy it might be!

Date:

Astronomy

Mar. 02, 2013 Rise Set
Actual Time 5:53 AM EET 5:15 PM EET
Civil Twilight 5:26 AM EET 5:42 PM EET
Nautical Twilight 4:55 AM EET 6:13 PM EET
Astronomical Twilight 4:24 AM EET 6:44 PM EET
Moon 10:30 PM EET (3/2) 8:07 AM EET (3/2)
Length of Visible Light 12h 15m
Length of Day
11h 21m
Waning Gibbous, 77% of the Moon is Illuminated
Mar 2
Waning Gibbous
Mar 4
Last Quarter
Mar 11
New
Mar 19
First Quarter
Mar 27
Full

Hourly Weather History & Observations

Time (EET) Temp. Windchill Dew Point Humidity Pressure Visibility Wind Dir Wind Speed Gust Speed Precip Events Conditions
12:50 AM 32.0 °F - 32.0 °F 100% 29.98 in 3.7 mi West 2.3 mph - N/A   Mostly Cloudy
1:50 AM 32.0 °F - 32.0 °F 100% 29.98 in 2.5 mi WNW 1.2 mph - N/A Snow Light Snow
2:00 AM 32 °F - 31 °F 97%  in 2 mi WNW 1.2 mph - - Snow Light Snow
2:50 AM 32.0 °F - 30.2 °F 93% 29.98 in - West 1.2 mph - N/A   Mostly Cloudy
3:31 AM 30.2 °F - 30.2 °F 100% 30.01 in - Calm Calm - N/A Snow Light Snow
3:50 AM 30.2 °F - 30.2 °F 100% 30.01 in 3.7 mi Calm Calm - N/A Snow Light Snow
4:50 AM 32.0 °F - 30.2 °F 93% 30.01 in 4.3 mi Calm Calm - N/A   Mostly Cloudy
5:50 AM 32.0 °F - 30.2 °F 93% 30.01 in 4.3 mi Calm Calm - N/A   Mostly Cloudy
6:50 AM 32.0 °F - 30.2 °F 93% 30.04 in 4.3 mi Calm Calm - N/A   Mostly Cloudy
7:50 AM 32.0 °F - 32.0 °F 100% 30.06 in 4.3 mi Calm Calm - N/A   Mostly Cloudy
8:00 AM 33 °F - 31 °F 89%  in 4 mi Calm Calm - -   Mist
9:50 AM 35.6 °F - 30.2 °F 81% 30.06 in 6.2 mi Variable 1.2 mph - N/A   Mostly Cloudy
10:50 AM 37.4 °F - 30.2 °F 75% 30.04 in 6.2 mi Variable 2.3 mph - N/A   Mostly Cloudy
11:50 AM 39.2 °F 37.0 °F 24.8 °F 56% 30.06 in 6.2 mi SSE 3.5 mph - N/A   Mostly Cloudy
12:50 PM 39.2 °F 35.9 °F 28.4 °F 65% 30.06 in 6.2 mi NNE 4.6 mph - N/A   Mostly Cloudy
1:50 PM 41.0 °F - 24.8 °F 53% 30.04 in 6.2 mi Variable 1.2 mph - N/A   Mostly Cloudy
2:00 PM 41 °F - 24 °F 38%  in 9 mi SSW 1.2 mph - -   Partly Cloudy
2:50 PM 42.8 °F - 26.6 °F 53% 30.04 in 6.2 mi Variable 1.2 mph - N/A   Scattered Clouds
3:50 PM 41.0 °F 38.0 °F 26.6 °F 57% 30.04 in 6.2 mi SSE 4.6 mph - N/A   Scattered Clouds
4:50 PM 41.0 °F 39.0 °F 26.6 °F 57% 30.04 in 6.2 mi West 3.5 mph - N/A   Scattered Clouds
5:50 PM 37.4 °F 34.9 °F 28.4 °F 70% 30.06 in 6.2 mi North 3.5 mph - N/A   Partly Cloudy
6:50 PM 35.6 °F - 28.4 °F 75% 30.09 in 6.2 mi NW 2.3 mph - N/A   Partly Cloudy
7:50 PM 32.0 °F 28.7 °F 28.4 °F 87% 30.09 in - SSE 3.5 mph - N/A   Clear
8:00 PM 31 °F - 28 °F 81%  in 7 mi SSE 3.5 mph - -  
8:50 PM 32.0 °F - 28.4 °F 87% 30.09 in - Variable 2.3 mph - N/A   Clear
9:50 PM 28.4 °F - 26.6 °F 93% 30.09 in - Variable 2.3 mph - N/A   Clear
10:50 PM 30.2 °F - 26.6 °F 86% 30.09 in - NW 2.3 mph - N/A   Clear
11:50 PM 30.2 °F 25.4 °F 26.6 °F 86% 30.06 in - West 4.6 mph - N/A   Clear